Rome, OR

12:13 AM MDT on April 30, 2017 (GMT -0600)
Rome State

Weather History for KREO - September, 2012

Change the Weather History Date:

Friday, September 14, 2012

  Actual Average Record
Temperature  
Mean Temperature 65 °F 61 °F  
Max Temperature 92 °F 81 °F 101 °F (2000)
Min Temperature 37 °F 41 °F 23 °F (1970)
Degree Days  
Heating Degree Days 0 5  
Month to date heating degree days 25 53  
Since 1 July heating degree days 25 94  
Cooling Degree Days 0 1  
Month to date cooling degree days 32 34  
Year to date cooling degree days 669 500  
Growing Degree Days 14 (Base 50)    
Moisture  
Dew Point 8 °F    
Average Humidity 15    
Maximum Humidity 27    
Minimum Humidity 3    
Precipitation  
Precipitation 0.00 in 0.01 in 0.61 in (1959)
Month to date precipitation 0.00 0.14  
Year to date precipitation 4.13 6.47  
Sea Level Pressure  
Sea Level Pressure 30.12 in    
Wind  
Wind Speed 7 mph (SSE)    
Max Wind Speed 18 mph    
Max Gust Speed 23 mph    
T = Trace of Precipitation, MM = Missing Value Source: NWS Daily Summary

Daily Weather History Graph

Daily Weather History Graph

Search for Another Location

Airport or City:

Trip Planner

Search our weather history database for the weather conditions in past years. The results will help you decide how hot, cold, wet, or windy it might be!

Date:

Astronomy

Sep. 14, 2012 Rise Set
Actual Time 6:30 AM PDT 7:02 PM PDT
Civil Twilight 6:02 AM PDT 7:30 PM PDT
Nautical Twilight 5:29 AM PDT 8:03 PM PDT
Astronomical Twilight 4:54 AM PDT 8:38 PM PDT
Moon 4:59 AM PDT (9/14) 6:01 PM PDT (9/14)
Length of Visible Light 13h 27m
Length of Day
12h 31m
Waning Crescent, 2% of the Moon is Illuminated
Sep 14
Waning Crescent
Sep 15
New
Sep 22
First Quarter
Sep 29
Full
Oct 8
Last Quarter

Hourly Weather History & Observations

Time (PDT) Temp. Windchill Dew Point Humidity Pressure Visibility Wind Dir Wind Speed Gust Speed Precip Events Conditions
12:52 AM 46.0 °F 43.1 °F 6.1 °F 20% 30.20 in - SE 5.8 mph - N/A   Unknown
1:52 AM 46.9 °F - 10.0 °F 22% 30.19 in - East 3.5 mph - N/A   Unknown
2:52 AM 43.0 °F 40.3 °F 3.9 °F 20% 30.18 in - SSE 4.6 mph - N/A   Unknown
3:52 AM 39.9 °F 35.8 °F 3.9 °F 22% 30.18 in - SE 5.8 mph - N/A   Unknown
4:52 AM 43.0 °F 38.2 °F 8.1 °F 24% 30.17 in - SE 8.1 mph - N/A   Unknown
5:52 AM 37.9 °F 34.4 °F 7.0 °F 28% 30.19 in - SE 4.6 mph - N/A   Unknown
6:52 AM 37.0 °F 33.3 °F 6.1 °F 28% 30.20 in - ESE 4.6 mph - N/A   Unknown
7:52 AM 51.1 °F - 6.1 °F 16% 30.20 in - Calm Calm - N/A   Unknown
8:52 AM 61.0 °F - 12.0 °F 15% 30.19 in - Calm Calm - N/A   Unknown
9:52 AM 66.9 °F - 14.0 °F 13% 30.17 in - Calm Calm - N/A   Unknown
10:52 AM 75.0 °F - 10.0 °F 8% 30.16 in - Calm Calm - N/A   Unknown
11:52 AM 82.9 °F - 7.0 °F 6% 30.14 in - Variable 3.5 mph - N/A   Unknown
12:52 PM 86.0 °F - 3.0 °F 4% 30.11 in - Calm Calm - N/A   Unknown
1:52 PM 90.0 °F - 3.9 °F 4% 30.08 in - SW 9.2 mph 16.1 mph N/A   Unknown
2:52 PM 91.0 °F - -2.0 °F 4% 30.06 in - South 11.5 mph 23.0 mph N/A   Unknown
3:52 PM 89.1 °F - 3.9 °F 4% 30.05 in - SSW 11.5 mph 18.4 mph N/A   Unknown
4:52 PM 89.1 °F - 3.9 °F 4% 30.03 in - West 11.5 mph - N/A   Unknown
5:52 PM 84.9 °F - 8.1 °F 5% 30.04 in - West 5.8 mph - N/A   Unknown
6:52 PM 75.9 °F - 8.1 °F 7% 30.06 in - South 8.1 mph - N/A   Unknown
7:52 PM 73.0 °F - 10.0 °F 9% 30.05 in - SE 12.7 mph - N/A   Unknown
8:52 PM 71.1 °F - 15.1 °F 12% 30.04 in - SSE 10.4 mph - N/A   Unknown
9:52 PM 66.0 °F - 16.0 °F 15% 30.04 in - SE 9.2 mph - N/A   Unknown
10:52 PM 63.0 °F - 17.1 °F 17% 30.04 in - SSE 10.4 mph - N/A   Unknown
11:52 PM 63.0 °F - 17.1 °F 17% 30.03 in - SE 10.4 mph - N/A   Unknown